Location: Unspecified
(48.5539°N, 71.6350°W)
Time: 05:59:48
(UTC-05:00)

ISS - Pass Details

Date: 28 January 2019
Orbit: 403 x 411 km, 51.6° (Epoch: 21 February)

Event Time Altitude Azimuth Distance (km) Brightness Sun altitude
Rises 22:32:40 0° 288° (WNW) 2,347 - -54.8°
Reaches altitude 10° 22:34:58 10° 275° (W) 1,483 - -55.0°
Maximum altitude 22:37:46 25° 218° (SW) 875 - -55.3°
Drops below altitude 10° 22:40:33 10° 160° (SSE) 1,477 - -55.5°
Sets 22:42:51 0° 147° (SSE) 2,335 - -55.7°
